TimeCST,TemperatureF,Dew PointF,Humidity,Sea Level PressureIn,VisibilityMPH,Wind Direction,Wind SpeedMPH,Gust SpeedMPH,PrecipitationIn,Events,Conditions,WindDirDegrees,DateUTC
12:15 AM,57.2,48.2,72,30.16,10.0,SSW,6.9,-,N/A,,Overcast,210,2012-11-23 06:15:00
12:35 AM,55.4,48.2,77,30.16,10.0,SW,4.6,-,N/A,,Mostly Cloudy,220,2012-11-23 06:35:00
1:15 AM,55.4,48.2,77,30.17,10.0,SW,4.6,-,N/A,,Overcast,220,2012-11-23 07:15:00
1:35 AM,57.2,48.2,72,30.17,10.0,SSW,4.6,-,N/A,,Overcast,200,2012-11-23 07:35:00
1:55 AM,57.2,48.2,72,30.18,9.0,SSW,4.6,-,N/A,,Overcast,210,2012-11-23 07:55:00
2:15 AM,55.4,48.2,77,30.18,9.0,WSW,4.6,-,N/A,,Overcast,250,2012-11-23 08:15:00
2:35 AM,55.4,50.0,82,30.18,9.0,SSW,9.2,-,N/A,,Overcast,200,2012-11-23 08:35:00
2:55 AM,55.4,50.0,82,30.18,9.0,SSW,3.5,-,0.10,,Overcast,210,2012-11-23 08:55:00
3:16 AM,55.4,51.8,88,30.19,5.0,South,9.2,-,0.01,,Overcast,180,2012-11-23 09:16:00
3:35 AM,55.4,51.8,88,30.20,7.0,West,4.6,-,0.07,,Overcast,260,2012-11-23 09:35:00
3:55 AM,55.4,51.8,88,30.21,5.0,West,3.5,-,0.14,,Overcast,280,2012-11-23 09:55:00
4:35 AM,55.4,51.8,88,30.19,5.0,WSW,5.8,-,0.12,,Overcast,240,2012-11-23 10:35:00
4:55 AM,55.4,51.8,88,30.20,4.0,SW,5.8,-,0.13,,Overcast,230,2012-11-23 10:55:00
5:15 AM,55.4,51.8,88,30.21,4.0,WSW,5.8,-,N/A,,Overcast,250,2012-11-23 11:15:00
5:35 AM,55.4,51.8,88,30.23,4.0,West,6.9,-,N/A,,Overcast,280,2012-11-23 11:35:00
5:55 AM,55.4,51.8,88,30.23,5.0,WNW,8.1,-,N/A,,Overcast,300,2012-11-23 11:55:00
6:35 AM,55.4,50.0,82,30.25,10.0,North,15.0,-,N/A,,Overcast,350,2012-11-23 12:35:00
6:55 AM,55.4,48.2,77,30.26,10.0,NNW,15.0,-,N/A,,Overcast,340,2012-11-23 12:55:00
7:35 AM,53.6,41.0,62,30.28,10.0,North,17.3,-,N/A,,Overcast,350,2012-11-23 13:35:00
7:55 AM,51.8,39.2,62,30.29,10.0,North,19.6,-,N/A,,Overcast,350,2012-11-23 13:55:00
8:15 AM,51.8,39.2,62,30.30,10.0,North,15.0,-,N/A,,Overcast,350,2012-11-23 14:15:00
8:35 AM,51.8,39.2,62,30.31,10.0,North,15.0,-,N/A,,Overcast,350,2012-11-23 14:35:00
8:55 AM,53.6,39.2,58,30.32,10.0,North,17.3,23.0,N/A,,Overcast,350,2012-11-23 14:55:00
9:15 AM,53.6,37.4,54,30.33,10.0,North,18.4,24.2,N/A,,Overcast,350,2012-11-23 15:15:00
9:36 AM,53.6,35.6,51,30.34,10.0,North,16.1,21.9,N/A,,Mostly Cloudy,350,2012-11-23 15:36:00
9:55 AM,53.6,37.4,54,30.34,10.0,North,15.0,20.7,N/A,,Partly Cloudy,360,2012-11-23 15:55:00
10:15 AM,55.4,35.6,47,30.34,10.0,North,17.3,-,N/A,,Clear,360,2012-11-23 16:15:00
10:36 AM,57.2,37.4,48,30.33,10.0,North,13.8,-,N/A,,Clear,360,2012-11-23 16:36:00
10:55 AM,57.2,35.6,44,30.33,10.0,North,15.0,-,N/A,,Clear,360,2012-11-23 16:55:00
11:15 AM,59.0,35.6,42,30.32,10.0,North,18.4,-,N/A,,Clear,350,2012-11-23 17:15:00
11:36 AM,60.8,35.6,39,30.31,10.0,NNW,16.1,-,N/A,,Clear,340,2012-11-23 17:36:00
11:55 AM,60.8,33.8,36,30.31,10.0,NNW,11.5,-,N/A,,Clear,340,2012-11-23 17:55:00
12:15 PM,60.8,35.6,39,30.30,10.0,NW,10.4,-,N/A,,Clear,320,2012-11-23 18:15:00
12:55 PM,60.8,35.6,39,30.28,10.0,NW,15.0,-,N/A,,Clear,320,2012-11-23 18:55:00
1:15 PM,62.6,35.6,37,30.28,10.0,NNW,12.7,-,N/A,,Clear,330,2012-11-23 19:15:00
1:55 PM,62.6,33.8,34,30.27,10.0,NW,15.0,-,N/A,,Clear,310,2012-11-23 19:55:00
2:15 PM,62.6,33.8,34,30.27,10.0,WNW,12.7,-,N/A,,Clear,300,2012-11-23 20:15:00
2:55 PM,62.6,33.8,34,30.27,10.0,WNW,13.8,-,N/A,,Clear,290,2012-11-23 20:55:00
3:35 PM,62.6,33.8,34,30.27,10.0,WNW,12.7,-,N/A,,Clear,290,2012-11-23 21:35:00
3:55 PM,60.8,33.8,36,30.27,10.0,WNW,10.4,-,N/A,,Clear,300,2012-11-23 21:55:00
4:15 PM,60.8,33.8,36,30.27,10.0,WNW,11.5,-,N/A,,Clear,300,2012-11-23 22:15:00
4:35 PM,57.2,35.6,44,30.28,10.0,North,10.4,-,N/A,,Clear,350,2012-11-23 22:35:00
4:56 PM,55.4,32.0,41,30.28,10.0,North,13.8,-,N/A,,Clear,350,2012-11-23 22:56:00
5:15 PM,53.6,33.8,47,30.29,10.0,North,9.2,-,N/A,,Clear,350,2012-11-23 23:15:00
5:35 PM,50.0,33.8,54,30.30,10.0,NNW,11.5,-,N/A,,Clear,330,2012-11-23 23:35:00
5:55 PM,50.0,33.8,54,30.31,10.0,NNW,10.4,-,N/A,,Clear,340,2012-11-23 23:55:00
6:15 PM,48.2,35.6,62,30.31,10.0,North,12.7,-,N/A,,Clear,350,2012-11-24 00:15:00
6:36 PM,48.2,33.8,58,30.32,10.0,NNW,15.0,-,N/A,,Clear,340,2012-11-24 00:36:00
6:55 PM,48.2,32.0,54,30.32,10.0,NNW,16.1,-,N/A,,Clear,340,2012-11-24 00:55:00
7:15 PM,48.2,30.2,50,30.34,10.0,NNW,13.8,-,N/A,,Clear,340,2012-11-24 01:15:00
7:55 PM,44.6,28.4,53,30.35,10.0,NNW,15.0,-,N/A,,Clear,340,2012-11-24 01:55:00
8:15 PM,44.6,28.4,53,30.36,10.0,North,12.7,-,N/A,,Clear,350,2012-11-24 02:15:00
8:35 PM,42.8,28.4,57,30.37,10.0,North,12.7,-,N/A,,Clear,350,2012-11-24 02:35:00
8:55 PM,42.8,26.6,53,30.37,10.0,North,18.4,21.9,N/A,,Clear,350,2012-11-24 02:55:00
9:15 PM,42.8,26.6,53,30.37,10.0,North,13.8,-,N/A,,Clear,350,2012-11-24 03:15:00
9:35 PM,39.2,28.4,65,30.38,10.0,North,11.5,-,N/A,,Clear,350,2012-11-24 03:35:00
10:15 PM,39.2,26.6,61,30.38,10.0,NNW,11.5,-,N/A,,Clear,340,2012-11-24 04:15:00
10:35 PM,39.2,26.6,61,30.39,10.0,North,10.4,-,N/A,,Clear,350,2012-11-24 04:35:00
11:15 PM,37.4,26.6,65,30.39,10.0,North,10.4,-,N/A,,Clear,350,2012-11-24 05:15:00
11:35 PM,37.4,26.6,65,30.40,10.0,North,9.2,-,N/A,,Clear,350,2012-11-24 05:35:00
11:56 PM,37.4,26.6,65,30.40,10.0,North,6.9,-,N/A,,Clear,350,2012-11-24 05:56:00